SCP
0 0 0 0 0 0 0 0 0 0 0 0 1 1 1 1 0 0 0 0 0 0 0 0 0 0 0 0 0 0 0 0 0 0 0 0 0 0
0 0 0 0 0 0 0 0 0 0 0 0 0 1 1 0 0 0 0 0 0 0 0 0 0 0 0 0 0 0 0 0 0 0 0 0 0 0
0 0 0 0 0 0 0 0 0 0 0 0 0 0 0 0 0 0 0 0 0 0 0 0 0 0 0 0 0 0 0 0 0 0 0 0 0 0
0 0 0 0 0 0 0 0 0 0 0 0 0 0 0 0 0 0 0 0 0 0 0 0 0 0 0 0 0 0 0 0 0 0 0 0 0 0
0 0 0 0 0 0 0 0 0 0 0 0 0 0 0 0 0 0 0 0 0 0 0 0 0 0 0 0 0 0 0 0 0 0 0 0 0 0
0 0 0 0 0 0 0 0 0 0 0 0 0 0 0 0 0 0 0 0 0 0 0 0 0 0 0 0 0 0 0 0 0 0 0 0 0 0
0 0 0 0 0 0 0 0 0 0 0 0 0 0 0 0 0 0 0 0 0 0 0 0 0 0 0 0 0 0 0 0 0 0 0 0 0 0
0 0 0 0 0 0 0 0 0 0 0 0 0 0 0 0 0 0 0 0 0 0 0 0 0 0 0 0 0 0 0 0 0 0 0 0 0 0
0 0 0 0 0 0 0 0 0 0 0 0 0 0 0 0 0 0 0 0 0 0 0 0 0 0 0 0 0 0 0 0 0 0 0 0 0 0
0 0 0 0 0 0 0 0 0 0 0 0 0 0 0 0 0 0 0 0 0 0 0 0 0 0 0 0 0 0 0 0 0 0 0 0 0 0
0 0 0 0 0 0 0 0 0 0 0 0 0 0 0 0 0 0 0 0 0 0 0 0 0 0 0 0 0 0 -0 -0 -0 0 0 0 0 0
0 0 0 0 0 0 0 0 0 0 0 0 0 0 0 0 0 0 0 0 0 0 0 0 0 0 0 0 0 0 0 0 0 0 0 0 0 0
0 0 0 0 0 0 0 0 0 0 0 0 0 0 0 0 0 0 0 0 0 0 0 0 0 0 0 0 0 0 0 0 0 0 0 0 0 0
0 0 0 0 0 0 0 0 0 0 0 0 0 0 0 0 0 0 0 0 0 0 0 0 0 0 0 0 0 0 0 0 0 0 0 0 0 0
0 0 0 0 0 0 0 0 0 0 0 0 0 0 0 0 0 0 0 0 0 0 0 0 0 0 0 0 0 0 0 0 0 0 0 0 0 0
0 0 0 0 0 0 0 0 0 0 0 0 0 0 0 0 0 0 0 0 0 0 0 0 0 0 0 0 0 0 0 0 0 0 0 0 0 0
0 0 0 0 0 0 0 0 0 0 0 0 0 0 0 0 0 0 0 0 0 0 0 0 0 0 0 0 0 0 0 0 0 0 0 0 0 0
0 0 0 0 0 0 0 0 0 0 0 0 0 0 0 0 0 0 0 0 0 0 0 0 0 0 0 0 0 0 0 0 0 0 0 0 0 0
0 0 0 0 0 0 0 0 0 0 0 0 0 0 0 0 0 0 0 0 0 0 0 0 0 0 0 0 0 0 0 0 0 0 0 0 0 0
0 0 0 0 0 0 0 0 0 0 0 0 0 0 0 0 0 0 0 0 0 0 0 0 0 0 0 0 0 0 0 0 0 0 0 0 0 0
0 0 0 0 0 0 0 0 0 0 0 0 0 0 0 0 0 0 0 0 0 0 0 0 0 0 0 0 0 0 0 0 0 0 0 0 0 0
0 0 0 0 0 0 0 0 0 0 0 0 0 0 0 0 0 0 0 0 0 0 0 0 0 0 0 0 0 0 0 0 0 0 0 0 0 0
0 0 0 0 0 0 0 0 0 0 0 0 0 0 0 0 0 0 0 0 0 0 0 0 0 0 0 0 0 0 0 0 0 0 0 0 0 0
Wind_Speed
6 6 5 5 5 5 5 6 6 6 6 3 1 1 2 2 5 5 6 8 10 9 9 10 10 11 11 11 11 10 10 9 8 7 6 5 4 3
4 5 5 5 5 5 5 5 6 6 5 3 1 1 2 3 5 5 7 11 11 11 11 12 13 13 13 13 13 13 12 11 11 11 10 9 8 7
5 6 5 6 5 5 5 5 5 5 6 3 1 2 3 4 5 6 7 7 7 12 13 13 14 14 14 14 13 13 13 12 12 12 11 10 10 9
5 5 5 5 6 5 5 6 5 5 5 4 2 2 3 5 7 7 6 7 7 12 14 14 14 14 14 14 13 13 13 12 12 11 11 10 10 9
5 4 4 5 5 4 5 4 4 4 3 4 3 2 3 4 7 7 8 7 8 10 13 13 14 14 14 14 13 13 12 12 11 10 10 10 9 8
4 3 3 4 4 4 4 3 2 2 3 4 5 4 3 5 6 7 7 5 7 8 9 10 12 13 13 13 13 13 12 11 10 10 9 8 8 7
4 2 2 1 2 3 3 2 1 3 3 5 5 4 4 5 5 5 7 6 6 6 7 7 7 7 7 10 11 11 10 10 9 8 8 7 6 5
4 3 3 2 1 0 0 0 2 4 4 5 5 7 6 6 5 7 7 7 5 4 6 6 6 6 5 5 9 10 9 9 8 7 6 5 4 3
4 4 4 3 3 3 4 4 4 3 4 4 6 6 7 7 7 7 6 6 5 6 5 6 6 6 5 7 11 10 9 8 7 6 5 4 3 2
5 4 3 4 3 4 4 5 4 4 4 4 5 5 6 6 6 7 7 6 5 4 5 6 6 6 7 5 8 9 9 8 6 5 3 2 1 0
5 5 5 5 5 6 6 6 6 5 8 10 10 9 11 10 7 6 6 6 5 3 2 4 6 6 5 4 5 8 8 7 6 4 2 1 2 1
4 4 6 7 7 6 6 7 7 6 7 8 8 9 9 9 8 5 5 5 5 3 2 3 5 5 4 3 4 5 4 5 6 5 3 0 3 1
5 5 6 11 10 7 6 6 8 8 7 7 6 6 5 5 5 4 3 4 5 4 3 3 3 3 4 4 3 4 5 4 4 3 4 2 2 3
3 4 8 13 11 9 6 9 11 9 6 5 5 5 5 5 6 6 6 7 7 6 4 3 3 2 3 4 3 3 3 4 4 3 3 4 2 4
2 5 12 14 12 8 10 12 9 5 5 5 5 5 5 7 6 5 6 7 7 6 6 5 4 3 3 4 3 3 2 2 3 3 2 2 3 3
3 7 13 13 9 10 9 7 5 4 4 5 6 6 6 5 5 4 5 5 5 4 4 5 5 4 3 4 4 3 2 2 2 3 1 0 2 3
5 6 6 7 7 7 6 5 4 4 5 6 7 6 5 5 4 4 4 5 5 4 3 2 3 4 5 4 3 3 2 2 2 2 1 1 1 3
7 7 7 8 8 8 7 6 5 5 5 7 6 6 5 5 5 4 4 5 5 5 4 3 3 3 3 4 4 2 2 2 1 1 1 1 0 2
6 6 6 7 7 8 7 6 6 5 6 6 6 6 5 5 5 4 4 4 5 5 5 4 3 3 3 3 0 2 2 2 1 1 1 1 1 1
7 6 6 6 6 7 7 6 6 6 6 6 6 5 5 5 5 4 4 5 5 5 4 3 2 2 2 3 3 2 2 2 2 0 1 1 1 1
8 7 6 6 6 6 6 6 6 6 6 5 5 5 5 5 5 4 5 6 5 4 5 4 3 3 2 2 2 3 3 4 3 3 2 1 1 1
7 7 6 6 6 6 6 6 7 7 6 5 5 5 5 5 5 6 6 5 4 4 6 4 4 3 2 2 2 4 4 4 4 4 4 4 2 2
7 7 6 7 6 5 6 7 9 8 6 5 6 5 5 5 4 5 5 5 4 5 6 5 4 3 3 3 2 2 3 4 4 3 4 9 12 12
Wind_Direction
270 273 269 271 268 263 260 252 254 265 265 250 234 209 172 136 152 141 131 132 132 129 128 127 123 120 117 114 112 108 108 106 103 101 102 103 111 151
266 273 276 276 272 267 260 253 242 247 260 251 232 184 152 145 139 128 121 124 119 121 120 117 115 114 112 110 108 106 102 100 97 94 93 89 85 83
275 277 279 281 279 275 269 263 248 236 246 253 207 159 144 137 125 114 124 119 116 116 115 112 111 110 109 107 106 104 102 99 97 94 91 90 87 86
275 282 289 290 283 277 268 262 253 237 224 219 192 164 148 141 136 133 129 121 117 116 114 114 112 110 108 106 103 100 99 97 95 93 92 91 91 90
270 280 291 294 290 286 278 268 254 235 202 182 176 159 142 137 133 126 118 115 118 118 112 110 112 112 110 108 105 103 101 99 97 94 90 87 86 85
256 271 290 295 291 291 285 270 234 197 177 164 158 148 132 130 131 129 122 123 124 128 113 112 111 108 110 110 109 108 106 104 102 99 95 91 87 84
241 241 262 289 311 295 287 276 192 162 156 150 147 140 137 140 139 136 130 124 112 121 122 126 123 117 115 114 111 114 113 111 109 106 102 98 93 90
226 219 199 191 164 108 45 215 178 163 155 151 152 150 146 139 137 140 135 133 128 140 133 138 139 131 129 117 125 124 121 118 116 113 110 103 98 96
213 212 217 176 171 141 112 100 85 107 140 145 144 143 144 148 144 136 138 139 134 152 141 133 132 121 119 124 137 136 133 130 126 120 112 104 98 97
209 198 182 164 173 156 137 114 95 84 115 130 129 126 131 138 137 135 133 117 104 119 130 128 131 123 120 129 153 152 151 151 148 140 129 117 102 249
212 187 167 156 154 158 142 128 115 98 87 96 102 107 109 110 115 122 126 129 128 125 119 118 128 126 128 140 168 177 173 170 166 161 153 70 352 321
205 170 164 152 152 157 150 139 131 122 114 107 103 108 112 111 113 124 137 141 136 122 118 111 135 134 130 144 157 170 188 193 190 191 196 289 4 23
200 175 155 148 148 144 140 136 135 131 126 123 121 118 115 111 104 95 98 133 132 118 130 121 141 144 130 143 157 173 173 164 178 194 212 225 42 58
222 175 153 153 150 146 135 136 139 138 134 131 126 125 121 109 98 90 84 85 92 95 82 88 116 118 117 131 136 145 148 152 154 162 171 176 150 98
252 155 149 153 148 143 143 147 152 149 139 137 129 120 109 107 105 99 92 87 84 83 71 59 69 76 102 118 117 120 117 117 111 115 136 164 171 159
167 141 144 153 150 139 146 158 171 160 142 129 116 109 109 115 118 120 114 108 98 81 66 61 60 62 78 92 101 104 102 106 95 82 50 256 150 135
140 143 153 159 154 148 156 165 165 157 141 126 124 129 135 138 141 145 139 135 128 129 125 100 85 85 80 67 91 93 86 80 96 98 350 320 129 132
150 159 164 164 160 158 162 162 164 157 140 134 138 142 146 149 149 151 151 146 142 143 145 146 134 117 95 49 39 67 81 74 55 34 341 2 70 123
169 176 175 172 166 161 162 162 163 152 143 145 149 154 155 153 154 156 154 144 138 134 137 143 149 152 158 152 328 351 95 91 37 16 8 357 331 169
193 188 186 180 173 161 163 164 158 150 150 151 152 154 152 149 152 155 147 141 137 136 135 133 128 123 124 132 144 190 214 158 135 106 328 320 334 90
197 194 191 179 175 162 158 157 151 147 151 149 148 151 152 151 153 153 139 141 142 143 138 131 143 146 117 112 145 161 190 211 193 180 204 263 285 280
193 190 187 179 170 164 157 155 151 148 153 155 150 154 153 155 156 152 148 153 161 148 134 140 163 168 181 200 189 169 177 192 227 235 239 227 214 231
189 187 184 176 164 165 161 159 155 154 159 165 157 158 162 158 155 153 155 160 157 146 143 154 172 189 199 202 202 180 179 186 189 197 235 234 234 244